Location: Unspecified
(43.4680°N, 87.1740°E)
Time: 12:43:20
(UTC+00:00)

Cosmos 1697 Rocket - Pass Details

Date: 17 January 2020
Orbit: 833 x 843 km, 71.0° (Epoch: 16 February)

Event Time Altitude Azimuth Distance (km) Brightness Sun altitude
Rises 22:37:51 0° 175° (S) 3,366 5.9 -32.7°
Reaches altitude 10° 22:40:30 10° 166° (SSE) 2,435 5.2 -32.2°
Maximum altitude 22:45:24 32° 104° (ESE) 1,386 4.3 -31.3°
Drops below altitude 10° 22:50:19 10° 43° (NE) 2,449 5.6 -30.4°
Sets 22:52:59 0° 34° (NE) 3,388 6.3 -29.9°
